Weather History for Atlanta Dekalb, GA

Change the Weather History Date:

Friday, October 19, 2012

  Actual Average Record
Temperature  
Mean Temperature 58 °F 61 °F  
Max Temperature 72 °F 72 °F 86 °F (1998)
Min Temperature 44 °F 50 °F 41 °F (2001)
Degree Days  
Heating Degree Days 8 5  
Month to date heating degree days 60  
Since 1 July heating degree days 70  
Cooling Degree Days 0 1  
Month to date cooling degree days 39  
Year to date cooling degree days 1743  
Growing Degree Days 8 (Base 50)    
Moisture  
Dew Point 38 °F    
Average Humidity 50    
Maximum Humidity 93    
Minimum Humidity 22    
Precipitation  
Precipitation 0.00 in 0.10 in 1.00 in (2004)
Month to date precipitation 2.20  
Year to date precipitation 43.34  
Sea Level Pressure  
Sea Level Pressure 29.81 in    
Wind  
Wind Speed 7 mph (WSW)    
Max Wind Speed 18 mph    
Max Gust Speed 29 mph    
Visibility 10 miles    
Events      
T = Trace of Precipitation, MM = Missing Value Source: NWS Daily Summary

Daily Weather History Graph

Daily Weather History Graph

Search for Another Location

Airport:

Trip Planner

Search our weather history database for the weather conditions in past years. The results will help you decide how hot, cold, wet, or windy it might be!

Date:

Astronomy

Oct. 19, 2012 Rise Set
Actual Time 7:45 AM EDT 6:57 PM EDT
Civil Twilight 7:20 AM EDT 7:23 PM EDT
Nautical Twilight 6:51 AM EDT 7:52 PM EDT
Astronomical Twilight 6:22 AM EDT 8:21 PM EDT
Moon 12:18 PM EDT 10:44 PM EDT
Length of Visible Light 12h 02m
Length of Day
11h 12m
Waxing Crescent, 23% of the Moon is Illuminated
Oct 19
Waxing Crescent
Oct 21
First Quarter
Oct 29
Full
Nov 6
Last Quarter
Nov 13
New

Hourly Weather History & Observations

Time (EDT) Temp. Dew Point Humidity Pressure Visibility Wind Dir Wind Speed Gust Speed Precip Events Conditions
12:53 AM 57.0 °F 48.9 °F 74% 29.83 in 10.0 mi WNW 6.9 mph - N/A   Clear
1:53 AM 54.0 °F 45.0 °F 72% 29.84 in 10.0 mi WNW 4.6 mph - N/A   Clear
2:53 AM 55.0 °F 41.0 °F 59% 29.83 in 10.0 mi WSW 3.5 mph - N/A   Clear
3:53 AM 53.1 °F 42.1 °F 66% 29.82 in 10.0 mi West 3.5 mph - N/A   Clear
4:53 AM 52.0 °F 41.0 °F 66% 29.81 in 10.0 mi West 3.5 mph - N/A   Clear
5:53 AM 50.0 °F 39.9 °F 68% 29.82 in 10.0 mi WSW 4.6 mph - N/A   Clear
6:53 AM 46.0 °F 41.0 °F 83% 29.83 in 10.0 mi Calm Calm - N/A   Clear
7:53 AM 44.1 °F 42.1 °F 93% 29.84 in 10.0 mi Calm Calm - N/A   Clear
8:53 AM 51.1 °F 45.0 °F 80% 29.84 in 10.0 mi SW 4.6 mph - N/A   Clear
9:53 AM 59.0 °F 41.0 °F 51% 29.83 in 10.0 mi SW 4.6 mph - N/A   Clear
10:53 AM 63.0 °F 37.9 °F 40% 29.83 in 10.0 mi West 6.9 mph - N/A   Clear
11:53 AM 66.9 °F 36.0 °F 32% 29.82 in 10.0 mi WSW 13.8 mph 20.7 mph N/A   Clear
12:53 PM 69.1 °F 30.0 °F 23% 29.82 in 10.0 mi WSW 18.4 mph 28.8 mph N/A   Clear
1:53 PM 71.1 °F 30.9 °F 23% 29.79 in 10.0 mi WSW 16.1 mph 23.0 mph N/A   Clear
2:53 PM 71.1 °F 30.9 °F 23% 29.76 in 10.0 mi WSW 17.3 mph 28.8 mph N/A   Clear
3:53 PM 71.1 °F 30.0 °F 22% 29.75 in 10.0 mi SW 18.4 mph 26.5 mph N/A   Clear
4:53 PM 70.0 °F 30.9 °F 24% 29.75 in 10.0 mi WSW 17.3 mph 25.3 mph N/A   Clear
5:53 PM 69.1 °F 33.1 °F 26% 29.75 in 10.0 mi WSW 9.2 mph - N/A   Clear
6:53 PM 64.0 °F 35.1 °F 34% 29.77 in 10.0 mi SW 8.1 mph - N/A   Clear
7:53 PM 62.1 °F 36.0 °F 38% 29.80 in 10.0 mi WSW 3.5 mph - N/A   Clear
8:53 PM 57.9 °F 37.0 °F 46% 29.82 in 10.0 mi SW 4.6 mph - N/A   Clear
9:53 PM 57.9 °F 36.0 °F 44% 29.83 in 10.0 mi West 3.5 mph - N/A   Clear
10:53 PM 55.9 °F 37.9 °F 51% 29.83 in 10.0 mi West 3.5 mph - N/A   Clear
11:53 PM 55.0 °F 37.0 °F 51% 29.83 in 10.0 mi Calm Calm - N/A   Clear